CZ-6A DEB, 54285

Orbit data source: Space-Track

CZ-6A DEB, 54285 is space debris in SSO originally from a launch on Fri, 11 Nov 2022 UTC launched from the Taiyaun Space Center, China (TSC). Debris objects in space refer to the collection of defunct objects orbiting the Earth. Examples of debris include non-operational satellites, rocket bodies, and fragments generated from explosions, collisions, or faulty payload assembly.

Loading next visibility...
Identifier
54285, 2022-151AC
Orbit
SSO
Country
Flag of CNCN / PRC
Related business
Manufacturer
SAST
Mission
Spacecraft
Bus & Motor
Unknown
Mass
Unknown
Launch date (UTC)
2022-11-11 (3 years ago)
Launch vehicle
Unknown
Launch site
Taiyaun Space Center, China (TSC)
Object type
Payload
Rocket body
Debris
Shape & HBR
Unknown shape, 0.1 m
Radar Cross Section
Small (<0.1 m²)

Expand to show TLE details & history
Last TLE update: 17 hours ago

TLE from 17 hours ago
0 CZ-6A DEB
1 54285U 22151AC  25351.90230760  .00002044  00000-0  11422-2 0  9990
2 54285  98.8505 344.4729 0071766 158.3335 202.0898 14.10616940158509
Epoch: 2025-12-17T21:39Z
TLE epoch observation values (Epoch: 2025-12-17T21:39:19.376Z)
Latitude
-0.00007°
Longitude
-67.12333°
Altitude
908.334 km
Speed
7.373 km/s
True Right ascension
22h 57m 53s
True Declination
0° 00' 00"
Sunlit
Object was in daylight at epoch
Visualization orbit readout
Latitude
Unknown
Longitude
Unknown
Altitude
Unknown
Speed
Unknown
Apparent Right ascension
Unknown
Apparent Declination
Unknown
Sunlit
N/A
Visualization observer readout
Local Sidereal Time
13:03:14
Azimuth
Unknown
Elevation
Unknown
Doppler factor
Unknown
Orbital elements
Apogee altitude
906.344 km
Perigee altitude
802.534 km
Semi-major axis
7,232.576 km
Eccentricity
0.00718
Inclination
98.8505°
RAAN
344.4729°
Arg. of periapsis
158.3335°
True anomaly
201.78309°
Mean anomaly
202.0898°
Eccentric anomaly
201.93619°
Mean motion
3.52861 °/min
Orbital period
102.02 mins
BSTAR
0.0011422
Loading maneuver chart data...
Computing Atmospheric mass density...
Loading historical data...
Loading historical data...
Loading historical data...
Loading historical data...
Loading historical data...
Loading historical data...
Loading historical data...

Documentation

Showing up to 5 results
|